DW8253 Weather Reports


time (UTC)temp
F
wind
direction
speed
knots
gust
knots
rain 1hr
in
rain 24hr
in
rain mn
in
humidity
%
barometer
mb
20260906210254 100 234 3.5 11.3 0.00 0.01 0.01 32 871.0
20260906205744 98 307 5.2 11.3 0.00 0.01 0.01 34 870.8
20260906204255 100 230 5.2 14.8 0.00 0.01 0.01 33 870.7
20260906203253 100 229 3.5 9.6 0.00 0.01 0.01 32 871.0
20260906202249 99 277 6.1 13.9 0.00 0.01 0.01 33 870.9
20260906201247 100 233 6.1 11.3 0.00 0.01 0.01 33 870.9
20260906200248 100 232 5.2 10.4 0.00 0.01 0.01 32 870.9
20260906195247 98 224 4.3 10.4 0.00 0.01 0.01 32 870.8
20260906194247 99 283 2.6 9.6 0.00 0.01 0.01 33 870.8
20260906193247 99 300 4.3 14.8 0.00 0.01 0.01 33 870.9
20260906192248 98 262 4.3 11.3 0.00 0.01 0.01 33 870.7
20260906191249 99 206 5.2 12.2 0.00 0.01 0.01 32 870.8
20260906190244 99 258 6.1 12.2 0.00 0.01 0.01 34 870.8
20260906185245 99 199 2.6 7.8 0.00 0.01 0.01 33 870.9
20260906185201 97 231 4.3 10.4 0.00 0.01 0.01 34 870.7
20260906183246 96 227 7.8 12.2 0.00 0.01 0.01 36 870.5
20260906182246 98 230 4.3 8.7 0.00 0.01 0.01 35 870.6
20260906181246 99 284 3.5 9.6 0.00 0.01 0.01 34 870.9
20260906180243 97 222 5.2 15.6 0.00 0.01 0.01 34 870.7
20260906180207 96 332 4.3 10.4 0.00 0.01 0.01 36 870.6
20260906175648 96 237 6.1 13.0 0.00 0.01 0.01 36 870.6
20260906173244 97 223 7.0 14.8 0.00 0.01 0.01 35 870.7
20260906172248 96 291 3.5 11.3 0.00 0.01 0.01 35 870.7
20260906171240 95 260 7.0 14.8 0.00 0.01 0.01 37 870.5
20260906170246 95 272 7.0 12.2 0.00 0.01 0.01 36 870.5
20260906165240 95 249 7.0 13.9 0.00 0.01 0.01 37 870.5
20260906164646 95 96 5.2 12.2 0.00 0.01 0.01 37 870.5
20260906164319 95 206 6.1 13.0 0.00 0.01 0.01 37 870.5
20260906162744 94 242 5.2 9.6 0.00 0.01 0.01 37 870.5
20260906161248 94 225 6.1 10.4 0.00 0.01 0.01 38 870.3
20260906160239 94 260 5.2 10.4 0.00 0.01 0.01 39 870.3
20260906155242 93 221 6.1 10.4 0.00 0.01 0.01 39 870.3
20260906154245 93 229 5.2 8.7 0.00 0.01 0.01 40 870.3
20260906153241 93 262 3.5 7.0 0.00 0.01 0.01 40 870.3
20260906152241 92 229 3.5 7.8 0.00 0.01 0.01 41 870.2
20260906151239 91 274 3.5 8.7 0.00 0.01 0.01 43 870.1
20260906150242 91 88 0.0 2.6 0.00 0.01 0.01 45 870.1
20260906145241 90 130 0.9 2.6 0.00 0.01 0.01 46 870.0
20260906144242 88 273 0.9 2.6 0.00 0.01 0.01 49 869.8
20260906143240 88 219 0.9 3.5 0.00 0.01 0.01 48 869.8
20260906142242 87 303 0.0 1.7 0.00 0.01 0.01 49 869.8
20260906141236 86 0 0.0 0.9 0.00 0.01 0.01 49 869.7
20260906140237 85 0 0.0 2.6 0.00 0.01 0.01 52 869.6
20260906135237 85 0 0.0 1.7 0.00 0.01 0.01 51 869.6
20260906134238 83 224 0.0 1.7 0.00 0.01 0.01 53 869.5
20260906133234 80 0 0.0 2.6 0.00 0.01 0.01 56 869.2
20260906133206 78 268 0.9 1.7 0.00 0.01 0.01 59 869.1
20260906131236 76 0 0.0 0.9 0.00 0.01 0.01 62 868.9
20260906131213 73 0 0.0 1.7 0.00 0.01 0.01 67 868.7
20260906125236 72 247 0.0 1.7 0.00 0.01 0.01 68 868.5
20260906124222 72 233 0.0 1.7 0.00 0.01 0.01 68 868.5
20260906123206 72 199 0.0 1.7 0.00 0.01 0.01 68 868.5
20260906123131 73 0 0.0 0.9 0.00 0.01 0.01 68 868.5
20260906122232 73 0 0.0 0.9 0.00 0.01 0.01 68 868.5
20260906122041 73 0 0.0 0.9 0.00 0.01 0.01 67 868.5
20260906115156 73 241 0.0 1.7 0.00 0.01 0.01 67 868.5
20260906114152 74 305 0.9 1.7 0.01 0.01 0.01 66 868.6
20260906113229 74 0 0.0 1.7 0.01 0.01 0.01 65 868.6
20260906112154 75 0 0.9 2.6 0.01 0.01 0.01 63 868.7
20260906111639 75 315 1.7 1.7 0.01 0.01 0.01 64 868.7
20260906110151 76 338 1.7 3.5 0.00 0.00 0.00 63 868.7
20260906105139 76 294 1.7 2.6 0.00 0.00 0.00 61 868.8
20260906104138 74 285 1.7 2.6 0.00 0.00 0.00 64 868.7
20260906103138 74 327 1.7 2.6 0.00 0.00 0.00 65 868.6
20260906102138 75 333 1.7 2.6 0.00 0.00 0.00 63 868.7
20260906101139 75 0 0.9 1.7 0.00 0.00 0.00 64 868.7
20260906100139 75 0 0.0 1.7 0.00 0.00 0.00 64 868.7
20260906095124 75 47 0.9 1.7 0.00 0.00 0.00 64 868.7
20260906094125 76 65 0.9 1.7 0.00 0.00 0.00 63 868.8
20260906093124 76 0 0.9 1.7 0.00 0.00 0.00 62 868.8
20260906092125 77 0 0.0 1.7 0.00 0.00 0.00 60 868.9
20260906091130 78 0 0.0 1.7 0.00 0.00 0.00 59 868.9
20260906090125 78 0 0.0 1.7 0.00 0.00 0.00 58 869.0
20260906085125 79 0 1.7 2.6 0.00 0.00 0.00 57 869.0
20260906084113 78 285 1.7 5.2 0.00 0.00 0.00 58 869.0
20260906083111 78 300 1.7 2.6 0.00 0.00 0.00 60 868.9
20260906082111 78 332 0.0 1.7 0.00 0.00 0.00 58 869.0
20260906081110 78 0 0.0 0.9 0.00 0.00 0.00 58 869.0
20260906080111 78 283 0.9 1.7 0.00 0.00 0.00 59 868.9
20260906075554 78 0 0.0 0.0 0.00 0.00 0.00 59 868.9
20260906074111 78 239 0.0 0.9 0.00 0.00 0.00 59 868.9
20260906073055 78 0 0.9 1.7 0.00 0.00 0.00 58 868.9
20260906072055 80 0 0.0 3.5 0.00 0.00 0.00 55 869.1
20260906071549 80 232 0.9 4.3 0.00 0.00 0.00 56 869.1
20260906071448 80 0 1.7 4.3 0.00 0.00 0.00 55 869.1
20260906065542 78 198 0.9 3.5 0.00 0.00 0.00 58 869.0
20260906064056 78 0 0.0 0.0 0.00 0.00 0.00 58 868.9
20260906063055 78 0 0.0 1.7 0.00 0.00 0.00 58 869.0
20260906062056 79 0 0.0 1.7 0.00 0.00 0.00 57 869.0
20260906061056 80 67 0.0 1.7 0.00 0.00 0.00 55 869.0
20260906060047 80 197 0.9 1.7 0.00 0.00 0.00 54 869.1
20260906055046 82 104 0.9 2.6 0.00 0.00 0.00 53 869.2
20260906055001 83 229 2.6 6.1 0.00 0.00 0.00 49 869.4
20260906053045 84 197 4.3 7.8 0.00 0.00 0.00 48 869.5
20260906052047 82 211 5.2 8.7 0.00 0.00 0.00 48 869.4
20260906052009 82 223 1.7 3.5 0.00 0.00 0.00 52 869.2
20260906050523 82 71 0.9 4.3 0.00 0.00 0.00 51 869.3
20260906045046 83 0 0.0 1.7 0.00 0.00 0.00 50 869.3
20260906044029 83 95 1.7 6.1 0.00 0.00 0.00 49 869.4
20260906043015 82 193 1.7 3.5 0.00 0.00 0.00 50 869.3
20260906042015 83 238 0.9 2.6 0.00 0.00 0.00 50 869.3
20260906041014 83 0 0.9 4.3 0.00 0.00 0.00 49 869.3
20260906040015 83 0 2.6 5.2 0.00 0.00 0.00 48 869.4
20260906035015 83 230 1.7 4.3 0.00 0.00 0.00 49 869.3
20260906034015 83 257 0.9 2.6 0.00 0.00 0.00 49 869.3
20260906033944 84 0 0.0 1.7 0.00 0.00 0.00 48 869.4
20260906031959 84 228 0.0 1.7 0.00 0.00 0.00 47 869.4
20260906031440 85 0 0.9 3.5 0.00 0.00 0.00 46 869.5
20260906030000 86 216 1.7 5.2 0.00 0.00 0.00 45 869.6
20260906024959 87 163 1.7 5.2 0.00 0.00 0.00 44 869.6
20260906023959 88 210 0.9 3.5 0.00 0.00 0.00 43 869.7
20260906022947 88 220 1.7 7.0 0.00 0.00 0.00 42 869.8
20260906021947 89 204 5.2 7.0 0.00 0.00 0.00 41 869.8
20260906021447 89 214 5.2 7.0 0.00 0.00 0.00 41 869.8
20260906015946 89 216 5.2 7.0 0.00 0.00 0.00 40 869.9
20260906014945 90 215 5.2 7.8 0.00 0.00 0.00 40 869.9
20260906013947 90 216 5.2 7.0 0.00 0.00 0.00 40 869.9
20260906012943 91 209 5.2 7.8 0.00 0.00 0.00 39 870.0
20260906012421 91 221 4.3 6.1 0.00 0.00 0.00 38 870.0
20260906010946 91 205 4.3 6.1 0.00 0.00 0.00 38 870.0
20260906010436 92 219 4.3 7.0 0.00 0.00 0.00 36 870.1
20260906005906 94 211 3.5 6.1 0.00 0.00 0.00 35 870.2
20260906003945 95 217 4.3 7.8 0.00 0.00 0.00 34 870.3
20260906002947 96 224 6.1 9.6 0.00 0.00 0.00 33 870.3
20260906001947 96 215 4.3 9.6 0.00 0.00 0.00 32 870.5
20260906001904 97 241 3.5 9.6 0.00 0.00 0.00 32 870.6
20260905235943 97 220 4.3 9.6 0.00 0.00 0.00 32 870.6
20260905234939 97 240 6.1 12.2 0.00 0.00 0.00 32 870.6
20260905234419 98 215 4.3 10.4 0.00 0.00 0.00 32 870.6
20260905232937 98 338 2.6 7.8 0.00 0.00 0.00 31 870.7
20260905231948 98 325 3.5 11.3 0.00 0.00 0.00 31 870.7
20260905230948 98 228 3.5 7.8 0.00 0.00 0.00 31 870.7
20260905230847 98 288 4.3 10.4 0.00 0.00 0.00 31 870.7
20260905225444 99 219 3.5 11.3 0.00 0.00 0.00 30 870.8
20260905224350 99 293 5.2 13.9 0.00 0.00 0.00 31 870.7
20260905223944 99 285 4.3 11.3 0.00 0.00 0.00 31 870.8
20260905222912 100 218 7.0 12.2 0.00 0.00 0.00 31 870.8
20260905220944 100 231 3.5 10.4 0.00 0.00 0.00 30 871.0
20260905215934 100 305 3.5 9.6 0.00 0.00 0.00 30 870.9
20260905214946 100 242 4.3 11.3 0.00 0.00 0.00 31 870.9
20260905213945 101 250 3.5 8.7 0.00 0.00 0.00 30 871.0
20260905212945 99 264 3.5 13.0 0.00 0.00 0.00 31 870.9
20260905211947 99 223 7.8 14.8 0.00 0.00 0.00 32 870.8